User: anonymous   Login
Location: Iesi
(43.5167°N, 13.2333°E)
Time: 07:51:34
(UTC+00:00)
Language:

Cosmos 2360 Rocket - Orbit

View from above orbital plane
View from above orbital plane
View from above satellite
View from above satellite

Ground track
Ground track

The orbit data is extracted from the following two-line orbital elements,

1 25407U 98045B   20299.83322712 -.00000229  00000-0 -92187-4 0  9990
2 25407  71.0120 343.5985 0006031 150.8924 209.2537 14.15828457149802
Epoch (UTC): 25 October 2020 19:59:50
Eccentricity: 0.0006031
inclination: 71.0120°
perigee height: 835 km
apogee height: 844 km
right ascension of ascending node: 343.5985°
argument of perigee: 150.8924°
revolutions per day: 14.15828457
mean anomaly at epoch: 209.2537°
orbit number at epoch: 14980

The dashed part of the orbit path shows where the satellite is in the earth's shadow,  

DLR